Flag for Andorra Weather past 2 weeks in Andorra La Vella, Andorra

Now
55 °F

Drizzle. Overcast.


Feels Like: 53 °F
Forecast: 38 / 52 °F
Wind: 10 mph from West

Location: Carcassonne Airport

Current Time: Mar 1, 2015 at 2:04:26 PM

Latest Report: Mar 1, 2015 at 1:30 PM


Visibility: 6 mi

Pressure: 30.12 "Hg

Humidity: 94%

Dew point: 54 °F

Location of Andorra La VellaLocation

Historic Weather in Andorra La Vella — Graph

°F

Andorra La Vella temperature yesterday

Maximum temperature yesterday: 54 °F (at 2:00 PM)
Minimum temperature yesterday: 36 °F (at 4:30 AM)
Average temperature yesterday: 44 °F

Past Weeks' High & Low Weather Summary

 TemperatureHumidityPressure
High59 °F (Feb 23, 1:00 PM)100% (Feb 14, 9:30 PM)30.57 "Hg (Feb 14, 9:30 PM)
Low28 °F (Feb 19, 7:00 AM)47% (Feb 28, 2:00 PM)29.65 "Hg (Feb 21, 6:00 AM)
Average46 °F81%30.09 "Hg
* Reported Feb 14 1:00 PM — Mar 1 1:00 PM, Andorra La Vella, Weather by CustomWeather, © 2015

Note: Actual official high and low records may vary slightly from our data, if they occured in-between our weather recording intervals... More about our weather records

Advertising

Andorra La Vella weather history for previous 24 hours

 ConditionsComfort  
Time TempWeatherWind HumidityBarometerVisibility
1:00 PM
Sun, Mar 1
55 °FLight rain. Mostly cloudy.10 mph94%30.12 "HgN/A
12:30 PM57 °FDrizzle. Overcast.13 mph88%30.12 "HgN/A
12:00 PM55 °FOvercast.15 mph94%30.12 "HgN/A
11:30 AM55 °FDrizzle. Overcast.14 mph94%30.12 "HgN/A
11:00 AM55 °FDrizzle. Overcast.13 mph88%30.12 "HgN/A
10:30 AM55 °FDrizzle. Mostly cloudy.12 mph88%30.12 "HgN/A
10:00 AM55 °FDrizzle. Mostly cloudy.12 mph88%30.12 "HgN/A
9:30 AM54 °FDrizzle. Overcast.10 mph94%30.09 "HgN/A
9:00 AM54 °FLight rain. Overcast.12 mph94%30.09 "HgN/A
8:30 AM54 °FLight rain. Mostly cloudy.10 mph94%30.09 "HgN/A
8:00 AM54 °FLight rain. Overcast.12 mph94%30.09 "HgN/A
7:30 AM54 °FLight rain. Mostly cloudy.10 mph94%30.07 "HgN/A
7:00 AM54 °FLight rain. Mostly cloudy.10 mph94%30.09 "HgN/A
6:30 AM52 °FLight rain. Overcast.6 mph100%30.09 "Hg4 mi
6:00 AM50 °FLight rain. Fog.5 mph100%30.09 "Hg3 mi
5:30 AM50 °FLight rain. Overcast.3 mph100%30.07 "Hg4 mi
5:00 AM50 °FLight rain. Fog.3 mph100%30.07 "Hg2 mi
4:30 AM50 °FLight rain. Fog.3 mph94%30.07 "Hg2 mi
4:00 AM50 °FRain. Fog.3 mph94%30.07 "Hg2 mi
3:30 AM50 °FOvercast.3 mph94%30.07 "HgN/A
3:00 AM50 °FOvercast.3 mph94%30.07 "HgN/A
2:30 AM50 °FOvercast.6 mph94%30.09 "HgN/A
2:00 AM48 °FDrizzle. Overcast.3 mph100%30.09 "Hg6 mi
1:30 AM48 °FOvercast.5 mph100%30.09 "Hg6 mi
1:00 AM48 °FDrizzle. Mostly cloudy.5 mph94%30.09 "Hg4 mi
12:30 AM46 °FFog.6 mph100%30.12 "Hg2 mi
12:00 AM46 °FPassing clouds.7 mph93%30.12 "HgN/A
11:30 PM
Sat, Feb 28
45 °FDrizzle. Low clouds.6 mph100%30.12 "Hg5 mi
11:00 PM46 °FDrizzle. Low clouds.8 mph93%30.12 "Hg6 mi
10:30 PM46 °FDrizzle. Low clouds.8 mph93%30.12 "Hg5 mi
10:00 PM46 °FDrizzle. Mostly cloudy.8 mph93%30.15 "Hg6 mi
9:30 PM46 °FDrizzle. Mostly cloudy.7 mph93%30.15 "Hg4 mi
9:00 PM46 °FLight rain. Partly cloudy.5 mph87%30.12 "HgN/A
8:30 PM46 °FLight rain. Overcast.7 mph87%30.12 "HgN/A
8:00 PM48 °FOvercast.9 mph71%30.12 "HgN/A
7:30 PM50 °FOvercast.8 mph67%30.12 "HgN/A
7:00 PM50 °FOvercast.9 mph62%30.12 "HgN/A
6:30 PM50 °FOvercast.7 mph62%30.12 "HgN/A
6:00 PM50 °FMostly cloudy.9 mph62%30.09 "HgN/A
5:30 PM50 °FOvercast.12 mph58%30.09 "HgN/A
5:00 PM52 °FMore clouds than sun.12 mph54%30.09 "HgN/A
4:30 PM52 °FClear.10 mph54%30.09 "HgN/A
4:00 PM54 °FClear.10 mph47%30.09 "HgN/A
3:30 PM52 °FClear.10 mph54%30.12 "HgN/A
3:00 PM52 °FClear.12 mph50%30.12 "HgN/A
2:30 PM54 °FClear.9 mph47%30.12 "HgN/A
2:00 PM54 °FClear.10 mph47%30.12 "HgN/A
Weather by CustomWeather, © 2015

See weather overviewHow to use our weather pages